Location: Schommer Observatory
(40.5200°N, 74.4500°W)
Time: 09:59:50
(UTC-04:00)

ISS - Pass Details

Date: 21 May 2018
Orbit: 402 x 407 km, 51.6° (Epoch: 23 May)

Event Time Altitude Azimuth Distance (km) Brightness Sun altitude
Rises 22:25:29 0° 254° (WSW) 2,312 0.3 -20.0°
Reaches altitude 10° 22:27:40 10° 263° (W) 1,454 -0.7 -20.2°
Maximum altitude 22:30:41 35° 331° (NNW) 678 -2.1 -20.5°
Drops below altitude 10° 22:33:43 10° 39° (NE) 1,458 -0.8 -20.9°
Sets 22:35:55 0° 49° (NE) 2,320 0.1 -21.1°
